Find GaoJing yi hao 03 xing

NORAD ID: 43099 Int'l Des: 2018-002 Owner: BHSJ Country: CN operational
LEOCIRCULARRETROGRADESSO

リアルタイム位置

3D地球を読み込み中...

GaoJing yi hao 03 xingについて

説明を読み込み中...

次回通過

Passes for default location (London). Set your location on the main map for personalized predictions.

高度履歴

Loading altitude history...

軌道要素

1 43099U 18002A 26106.95448095 .00010155 00000-0 26768-3 0 9999
2 43099 97.3139 191.9758 0049398 43.2696 317.2412 15.37430237458958
Epoch: Apr 16, 2026 • Age: 8 hours

現在のステータス

高度 444.6 km
速度 7.65 km/s
衛星直下点 -18.95°S, 110.14°W
打ち上げ日 Jan 9, 2018
運用期間 8.2 years
タイプ other

技術仕様

分類 Payload
質量 600.00 kg
乾燥質量 560.00 kg
総質量 600.00 kg
長さ 2.00 m
直径 1.50 m
スパン 4.00 m
形状 Box + 2 Pan
製造者 DFHZ
バスタイプ CAST3000B
フェーズステータス In Orbit
所有者/国 BHSJ/CN

Most Searched